Patterson, LA

6:19 PM CST on November 14, 2019 (GMT -0600)
Williams Memorial

Weather History for KPTN - September, 2019

Change the Weather History Date:

Thursday, September 12, 2019

  Actual Average Record
Temperature  
Mean Temperature 82 °F -  
Max Temperature 91 °F 85 °F 95 °F (2010)
Min Temperature 73 °F 69 °F 61 °F (2017)
Cooling Degree Days 17    
Growing Degree Days 32 (Base 50)    
Moisture  
Dew Point 74 °F    
Average Humidity 85    
Maximum Humidity 100    
Minimum Humidity 57    
Precipitation  
Precipitation 0.00 in - - ()
Sea Level Pressure  
Sea Level Pressure 30.07 in    
Wind  
Wind Speed 2 mph (ENE)    
Max Wind Speed 9 mph    
Max Gust Speed -    
Visibility 8 miles    
Events Fog , Rain , Thunderstorm    
Averages and records for this station are not official NWS values.
T = Trace of Precipitation, MM = Missing Value Source: NWS Daily Summary

Daily Weather History Graph

Daily Weather History Graph

Search for Another Location

Airport or City:

Astronomy

Sep. 12, 2019 Rise Set
Actual Time 6:48 AM CDT 7:14 PM CDT
Civil Twilight 6:24 AM CDT 7:38 PM CDT
Nautical Twilight 5:56 AM CDT 8:06 PM CDT
Astronomical Twilight 5:27 AM CDT 8:34 PM CDT
Moon 6:49 PM CDT (9/12) 5:20 AM CDT (9/12)
Length of Visible Light 13h 14m
Length of Day
12h 26m
Waxing Gibbous, 98% of the Moon is Illuminated
Sep 12
Waxing Gibbous
Sep 13
Full
Sep 21
Last Quarter
Sep 28
New
Oct 5
First Quarter

Hourly Weather History & Observations

Time (CDT) Temp. Heat Index Dew Point Humidity Pressure Visibility Wind Dir Wind Speed Gust Speed Precip Events Conditions
12:56 AM 75.9 °F - 75.0 °F 97% 30.08 in 10.0 mi Calm Calm - N/A   Clear
1:56 AM 75.0 °F - 73.9 °F 96% 30.08 in 10.0 mi Calm Calm - N/A   Clear
2:46 AM 73.4 °F - 73.4 °F 100% 30.07 in 1.8 mi Calm Calm - N/A   Clear
2:49 AM 73.4 °F - 73.4 °F 100% 30.07 in 1.0 mi Calm Calm - N/A   Mist
2:56 AM 73.9 °F - 73.9 °F 100% 30.07 in 0.8 mi Calm Calm - N/A   Mist
3:07 AM 73.4 °F - 73.4 °F 100% 30.07 in 0.5 mi Calm Calm - N/A Fog Fog
3:23 AM 73.4 °F - 73.4 °F 100% 30.06 in 0.2 mi Calm Calm - N/A Fog Fog
3:56 AM 73.0 °F - 73.0 °F 100% 30.06 in 0.5 mi ENE 4.6 mph - N/A Fog Fog
4:06 AM 73.4 °F - 73.4 °F 100% 30.06 in 1.5 mi ENE 3.5 mph - N/A   Scattered Clouds
4:19 AM 73.4 °F - 73.4 °F 100% 30.06 in 3.0 mi ENE 4.6 mph - N/A   Partly Cloudy
4:56 AM 73.9 °F - 73.9 °F 100% 30.07 in 9.0 mi ENE 4.6 mph - N/A   Clear
5:56 AM 73.9 °F - 73.9 °F 100% 30.08 in 10.0 mi NE 4.6 mph - N/A   Clear
6:56 AM 73.9 °F - 73.9 °F 100% 30.08 in 10.0 mi ENE 3.5 mph - N/A   Clear
7:56 AM 77.0 °F - 75.9 °F 96% 30.10 in 10.0 mi NE 4.6 mph - N/A   Clear
8:56 AM 81.0 °F 87.9 °F 77.0 °F 88% 30.11 in 10.0 mi ENE 5.8 mph - N/A   Clear
9:56 AM 86.0 °F 96.0 °F 75.9 °F 72% 30.13 in 10.0 mi ENE 9.2 mph - N/A   Clear
10:56 AM 88.0 °F 96.5 °F 73.9 °F 63% 30.13 in 10.0 mi East 6.9 mph - N/A   Clear
11:56 AM 89.1 °F 99.1 °F 75.0 °F 63% 30.12 in 10.0 mi East 6.9 mph - N/A   Partly Cloudy
12:56 PM 90.0 °F 100.2 °F 75.0 °F 61% 30.11 in 10.0 mi ESE 3.5 mph - N/A   Clear
1:56 PM 91.0 °F 100.4 °F 73.9 °F 57% 30.09 in 10.0 mi SSE 5.8 mph - N/A   Clear
2:56 PM 89.1 °F 98.0 °F 73.9 °F 61% 30.06 in 10.0 mi NNW 6.9 mph - N/A   Mostly Cloudy
3:56 PM 88.0 °F 95.6 °F 73.0 °F 61% 30.04 in 10.0 mi North 8.1 mph - N/A   Mostly Cloudy
4:56 PM 89.1 °F 98.0 °F 73.9 °F 61% 30.04 in 10.0 mi South 4.6 mph - N/A Thunderstorm Clear
5:12 PM 87.8 °F 97.6 °F 75.2 °F 66% 30.03 in 10.0 mi SW 9.2 mph - N/A   Partly Cloudy
5:56 PM 89.1 °F 97.0 °F 73.0 °F 59% 30.04 in 10.0 mi Calm Calm - N/A   Clear
6:56 PM 86.0 °F 93.8 °F 73.9 °F 67% 30.04 in 10.0 mi South 3.5 mph - N/A   Mostly Cloudy
7:56 PM 79.0 °F - 75.9 °F 90% 30.05 in 10.0 mi Calm Calm - 0.00 in Rain Light Rain
8:56 PM 79.0 °F - 75.9 °F 90% 30.06 in 10.0 mi Calm Calm - 0.00 in   Clear
9:56 PM 77.0 °F - 75.0 °F 94% 30.07 in 10.0 mi Calm Calm - 0.00 in   Clear
10:56 PM 75.9 °F - 75.0 °F 97% 30.08 in 10.0 mi Calm Calm - N/A   Clear
11:56 PM 75.9 °F - 75.0 °F 97% 30.07 in 10.0 mi Calm Calm - N/A   Clear